Location: Township of Marena
(38.1747°N, 99.6798°W)
Time: 03:18:51
(UTC+00:00)

Cosmos 1455 - Pass Details

Date: 26 October 2020
Orbit: 499 x 521 km, 82.5° (Epoch: 27 November)

Event Time Altitude Azimuth Distance (km) Brightness Sun altitude
Rises 01:15:03 0° 173° (S) 2,585 5.7 -17.9°
Reaches altitude 10° 01:17:12 10° 168° (SSE) 1,709 4.7 -18.4°
Enters shadow 01:19:28 32° 146° (SSE) 890 3.1 -18.8°
